Flag for Germany Weather past 2 weeks in Prenzlau, Brandenburg, Germany

Now
55 °F

Clear.


Feels Like: 54 °F
Forecast: 54 / 73 °F
Wind: 7 mph from East

Location: Szczecin Airport

Current Time: Sep 17, 2014 at 4:30:43 AM

Latest Report: Sep 17, 2014 at 4:00 AM


Visibility: 10 mi

Pressure: 30.15 "Hg

Humidity: 77%

Dew point: 48 °F

Location of PrenzlauLocation

Historic Weather in Prenzlau — Graph

°F

Prenzlau temperature yesterday

Maximum temperature yesterday: 75 °F (at 3:00 PM)
Minimum temperature yesterday: 57 °F (at 5:00 AM)
Average temperature yesterday: 65 °F

Past Weeks' High & Low Weather Summary

 TemperatureHumidityPressure
High79 °F (Sep 15, 4:30 PM)100% (Sep 2, 3:00 AM)30.33 "Hg (Sep 2, 3:00 AM)
Low48 °F (Sep 10, 10:30 PM)39% (Sep 6, 2:30 PM)29.89 "Hg (Sep 7, 3:30 PM)
Average62 °F79%30.09 "Hg
* Reported Sep 2 3:00 AM — Sep 17 3:00 AM, Prenzlau, Weather by CustomWeather, © 2014

Note: Actual official high and low records may vary slightly from our data, if they occured in-between our weather recording intervals... More about our weather records

Advertising

Prenzlau weather history for previous 24 hours

 ConditionsComfort  
Time TempWeatherWind HumidityBarometerVisibility
3:00 AM
Sep 17
57 °FClear.7 mph72%30.15 "Hg10 mi
2:30 AM57 °FClear.8 mph72%30.15 "Hg10 mi
2:00 AM57 °FClear.7 mph72%30.15 "Hg10 mi
1:30 AM59 °FClear.6 mph72%30.15 "Hg10 mi
1:00 AM59 °FClear.7 mph72%30.15 "Hg10 mi
12:30 AM59 °FClear.6 mph72%30.15 "Hg10 mi
12:00 AM59 °FClear.6 mph72%30.15 "Hg10 mi
11:30 PM
Sep 16
61 °FClear.6 mph72%30.15 "Hg10 mi
11:00 PM61 °FClear.6 mph72%30.15 "Hg10 mi
10:30 PM63 °FClear.7 mph68%30.15 "Hg10 mi
10:00 PM63 °FClear.6 mph68%30.15 "Hg10 mi
9:30 PM63 °FClear.6 mph68%30.15 "Hg10 mi
9:00 PM64 °FClear.6 mph64%30.15 "Hg10 mi
8:30 PM64 °FClear.7 mph64%30.15 "Hg10 mi
8:00 PM64 °FSunny.6 mph68%30.12 "Hg10 mi
7:30 PM66 °FSunny.5 mph64%30.12 "Hg10 mi
7:00 PM68 °FSunny.5 mph64%30.12 "Hg10 mi
6:30 PM70 °FSunny.3 mph57%30.12 "Hg10 mi
6:00 PM72 °FSunny.3 mph53%30.12 "Hg10 mi
5:30 PM73 °FSunny.6 mph47%30.12 "Hg10 mi
5:00 PM73 °FSunny.8 mph47%30.12 "Hg10 mi
4:30 PM73 °FSunny.7 mph50%30.12 "Hg10 mi
4:00 PM73 °FSunny.8 mph50%30.15 "Hg10 mi
3:30 PM73 °FSunny.8 mph50%30.15 "Hg10 mi
3:00 PM75 °FSunny.8 mph44%30.15 "Hg10 mi
2:30 PM73 °FSunny.10 mph47%30.15 "Hg10 mi
1:30 PM72 °FSunny.8 mph53%30.15 "Hg10 mi
1:00 PM72 °FSunny.10 mph50%30.18 "Hg10 mi
12:30 PM70 °FSunny.10 mph53%30.18 "Hg10 mi
12:00 PM70 °FSunny.12 mph53%30.18 "Hg10 mi
11:30 AM70 °FSunny.12 mph57%30.18 "Hg10 mi
11:00 AM68 °FSunny.8 mph64%30.18 "Hg10 mi
10:30 AM66 °FSunny.8 mph64%30.18 "Hg10 mi
10:00 AM64 °FSunny.7 mph68%30.18 "Hg10 mi
9:30 AM63 °FSunny.6 mph73%30.18 "Hg10 mi
9:00 AM61 °FSunny.5 mph72%30.18 "Hg10 mi
8:30 AM59 °FSunny.5 mph72%30.18 "Hg10 mi
8:00 AM57 °FSunny.6 mph82%30.18 "Hg10 mi
7:30 AM57 °FClear.6 mph77%30.18 "Hg10 mi
7:00 AM57 °FClear.7 mph77%30.15 "Hg10 mi
6:30 AM57 °FClear.7 mph77%30.15 "Hg10 mi
6:00 AM57 °FClear.7 mph82%30.15 "Hg10 mi
5:30 AM57 °FClear.7 mph82%30.15 "Hg10 mi
5:00 AM57 °FClear.7 mph82%30.15 "Hg10 mi
4:30 AM59 °FClear.8 mph77%30.15 "Hg10 mi
4:00 AM59 °FClear.8 mph77%30.15 "Hg10 mi
Weather by CustomWeather, © 2014

See weather overviewHow to use our weather pages